Weather in Osmigovichi

Ukraine / Volyn Oblast     50°55′34″N   24°47′34″E
temp.,
°C
wind,
m/s
gust,
m/s
humid.,
%
clouds,
%
prec.,
mm/h
press.,
hPa
HPBL,
m
25 october, mon
mon2500:00+3sw116866 0.0 103410
03:00+2ssw227323 0.0 103317
06:00+1s337768 0.0 103332
09:00+1sse367434 0.0 1032123
12:00+8sse57485 0.0 1032589
15:00+11sse67386 0.0 1029834
18:00+7sse48495 0.0 1027137
21:00+4sse411570 0.0 1027189
26 october, tue
tue2600:00+4sse512585 0.0 1027226
03:00+3s410635 0.0 1026186
06:00+2s36675 0.0 102597
09:00+3s35640 0.0 102499
12:00+10sw35391 0.0 1024460
15:00+13sw45334 0.0 1022775
18:00+9s334555 0.0 102120
21:00+6ssw3350100 0.0 102234
27 october, wed
wed2700:00+5wsw3462100 0.0 102247
03:00+5w346998 0.0 102257
06:00+4w347195 0.0 102367
09:00+4w347668 0.0 102468
12:00+9wnw356697 0.0 1025353
15:00+11wnw356422 0.0 1025605
18:00+9wsw2274100 0.0 102514
21:00+7w338699 0.0 102724
28 october, thu
thu2800:00+6wsw3388100 0.0 102728
03:00+6wsw3388100 0.0 102737
06:00+5sw34905 0.0 102758
09:00+5wsw35915 0.0 1028101
12:00+11wsw45645 0.0 1028476
15:00+14wsw3452100 0.0 1027769
18:00+10sw226953 0.0 102610
21:00+8ssw227979 0.0 102711
29 october, fri
fri2900:00+7ssw228298 0.0 102711
03:00+6sse22845 0.0 102712
06:00+5sse338547 0.0 102726
09:00+5se368244 0.0 1027107
12:00+12sse574517 0.0 1026430
15:00+15se573437 0.0 1024688
18:00+10se49495 0.0 1023131
21:00+8se413545 0.0 1023234